Flag for U.S.A. Weather past 2 weeks in Anchorage, Alaska, U.S.A.

Now
64 °F

Sunny.


Feels Like: 64 °F
Forecast: 60 / 72 °F
Wind: No wind

Location: Lake Hood Seaplane

Current Time: Aug 3, 2015 at 11:39:08 PM

Latest Report: Aug 3, 2015 at 10:53 PM


Visibility: 10 mi

Pressure: 30.00 "Hg

Humidity: 75%

Dew point: 56 °F

Location of AnchorageLocation

Historic Weather in Anchorage — Graph

°F

Anchorage temperature yesterday

Maximum temperature yesterday: 72 °F (at 7:53 PM)
Minimum temperature yesterday: 60 °F (at 5:53 AM)
Average temperature yesterday: 66 °F

Past Weeks' High & Low Weather Summary

 TemperatureHumidityPressure
High76 °F (Aug 1, 3:53 PM)94% (Jul 25, 10:59 PM)30.16 "Hg (Jul 25, 10:59 PM)
Low53 °F (Jul 24, 4:53 AM)33% (Aug 1, 6:53 PM)29.55 "Hg (Jul 22, 8:53 PM)
Average62 °F70%29.89 "Hg
* Reported Jul 19 9:53 PM — Aug 3 9:53 PM, Anchorage, Weather by CustomWeather, © 2015

Note: Actual official high and low records may vary slightly from our data, if they occured in-between our weather recording intervals... More about our weather records

Advertising

Anchorage weather history for previous 24 hours

 ConditionsComfort  
Time TempWeatherWind HumidityBarometerVisibility
9:53 PM
Mon, Aug 3
69 °FSunny.No wind59%30.00 "Hg10 mi
8:53 PM73 °FSunny.3 mph46%30.00 "Hg10 mi
7:53 PM73 °FSunny.6 mph44%30.01 "Hg10 mi
6:53 PM75 °FSunny.7 mph42%30.01 "Hg10 mi
5:53 PM76 °FSunny.7 mph48%30.02 "Hg10 mi
4:53 PM76 °FSunny.6 mph47%30.03 "Hg10 mi
3:53 PM76 °FSunny.5 mph43%30.05 "Hg10 mi
2:53 PM73 °FSunny.No wind48%30.07 "Hg10 mi
1:53 PM72 °FSunny.No wind46%30.08 "Hg10 mi
12:53 PM70 °FSunny.No wind47%30.09 "Hg10 mi
11:53 AM68 °FSunny.3 mph57%30.10 "Hg10 mi
10:53 AM66 °FSunny.3 mph63%30.11 "Hg10 mi
9:53 AM65 °FSunny.No wind63%30.11 "Hg10 mi
8:53 AM63 °FSunny.No wind70%30.12 "Hg10 mi
7:53 AM59 °FSunny.3 mph72%30.12 "Hg10 mi
6:53 AM58 °FSunny.No wind78%30.12 "Hg10 mi
5:53 AM57 °FClear.No wind81%30.12 "Hg10 mi
4:53 AM57 °FClear.No wind81%30.12 "Hg10 mi
3:53 AM58 °FClear.No wind78%30.12 "Hg10 mi
2:53 AM59 °FClear.3 mph81%30.12 "Hg10 mi
1:53 AM59 °FClear.No wind84%30.12 "Hg10 mi
12:53 AM61 °FClear.3 mph78%30.11 "Hg10 mi
11:53 PM
Sun, Aug 2
63 °FClear.No wind68%30.10 "Hg10 mi
Weather by CustomWeather, © 2015

See weather overviewHow to use our weather pages